カタログに戻る

STARLINK-31423

運用中通信VLEO
NORAD 59242·PAYLOAD·🇺🇸 United States

打ち上げ Mar 16, 2024 から Cape Canaveral Space Force Station

Loading…

次のパス (今後24時間)

TLE

最新Source: CelesTrak SupGP

元期: Sep 15, 2026, 01:45 UTC

1 59242C 24049M   26258.07340278  .00002945  00000+0  10670-3 0  2589
2 59242  43.0009 154.2519 0001320 275.8772 200.9799 15.27568045    11

AllMySatでSTARLINK-31423をリアルタイム追跡

Download on the App Store